Dewpoint
55 55 55 55 56 56 56 57 57 57 57 57 58 58 59 59 56 48 33 38 42 58 65 61 59 58 57 56 56 64 55 43 44 47 46 47 47 49 51 52 53 56 61 60 61
55 55 55 55 55 55 56 56 56 56 56 57 57 58 59 59 46 31 44 43 49 56 52 58 54 54 53 51 52 51 47 43 44 46 45 47 47 50 49 52 53 59 61 61 62
55 55 54 55 55 55 56 56 56 56 56 56 57 58 59 57 40 34 50 49 47 54 53 58 54 52 51 48 52 49 43 40 43 44 45 46 45 50 48 49 53 59 60 61 63
54 55 54 54 55 55 56 56 56 55 56 56 56 57 58 48 34 43 55 54 54 52 56 56 52 54 57 50 46 43 41 42 41 44 43 48 48 47 47 46 51 56 60 61 61
54 54 54 54 54 55 55 55 55 55 56 56 56 57 46 38 29 52 59 59 52 53 58 52 54 55 56 52 48 46 40 42 43 43 46 46 46 48 48 50 52 55 57 61 62
53 53 53 54 54 54 55 55 54 54 56 58 57 57 43 28 37 41 40 50 48 54 55 53 55 54 54 50 46 49 43 43 41 45 43 46 47 51 50 51 53 56 55 56 61
53 52 52 53 53 54 54 54 54 54 56 60 58 49 34 29 30 42 43 44 48 51 53 54 52 52 53 52 51 48 47 40 44 44 48 46 47 50 51 52 53 55 54 55 58
53 53 52 52 53 54 54 53 53 54 58 60 58 43 31 22 24 29 41 45 46 49 50 54 54 53 58 56 50 43 48 49 48 46 48 46 46 49 50 51 52 53 54 55 55
54 53 53 53 53 53 52 52 52 54 59 59 47 38 27 25 21 29 42 41 44 47 49 53 54 52 52 47 47 47 46 46 49 47 47 45 46 48 50 50 52 52 54 55 56
55 54 54 53 53 52 51 49 48 51 54 48 39 34 25 20 18 20 41 43 43 45 47 49 48 47 48 45 45 46 47 46 46 50 44 43 43 45 47 48 50 52 53 53 55
54 54 54 53 52 52 48 37 38 36 38 24 21 20 16 17 17 17 40 43 43 44 43 44 43 41 43 47 47 45 44 44 44 46 44 43 42 42 45 47 48 50 52 53 54
54 54 54 53 52 51 48 31 20 25 25 33 22 19 16 18 13 20 37 40 39 39 41 40 40 40 44 44 46 45 44 40 42 44 44 41 41 40 42 43 44 47 49 54 53
54 54 53 52 51 49 31 30 24 20 23 21 28 18 14 22 17 17 31 35 34 36 35 36 38 38 43 42 43 44 39 40 38 43 44 42 42 42 42 40 41 43 46 50 54
54 53 53 50 44 37 30 28 27 20 22 17 17 21 12 17 17 17 26 29 30 33 31 32 32 33 37 40 41 37 43 42 39 38 34 42 36 31 41 40 41 42 43 45 54
53 53 52 50 42 32 30 23 19 27 18 12 18 21 12 12 11 14 19 26 25 27 28 27 28 28 34 36 35 40 42 41 40 37 35 32 36 34 40 38 44 43 41 43 53
53 53 52 43 46 36 30 26 26 23 13 19 21 19 15 9 10 12 13 22 25 24 27 26 26 27 31 34 34 39 42 40 39 34 31 39 32 36 39 43 42 42 42 43 44
52 52 51 45 33 36 27 25 20 17 14 17 21 20 14 10 9 10 12 17 21 20 22 26 24 27 28 31 33 35 34 31 30 31 34 44 40 39 41 41 41 36 41 45 45
52 50 46 44 32 33 31 23 18 17 15 15 18 19 16 14 11 9 12 11 17 17 20 25 24 24 32 30 30 32 31 30 27 32 37 48 42 36 43 32 34 35 39 43 44
50 42 41 38 40 33 29 20 19 19 16 14 16 16 16 14 11 8 13 13 12 15 20 20 23 26 28 32 31 29 28 32 29 34 31 43 44 48 42 41 37 31 35 44 44
45 37 33 34 34 31 27 21 18 19 19 16 14 17 17 14 11 10 10 14 12 11 16 20 19 24 26 27 32 31 45 36 38 29 27 28 35 39 44 41 44 42 29 39 45
45 35 32 33 29 26 21 21 21 20 20 19 17 17 16 16 13 10 10 13 13 11 19 20 18 17 22 24 27 30 43 44 43 41 33 35 37 48 43 40 38 39 28 31 45
38 30 39 32 22 19 18 19 21 20 21 21 20 17 17 18 16 13 12 12 13 13 12 14 14 13 20 23 26 28 28 35 39 35 31 35 35 45 39 39 38 37 30 34 38
38 30 38 32 17 13 15 15 17 18 19 20 19 17 18 18 18 19 17 15 14 12 11 11 12 12 9 11 16 21 24 26 27 23 23 27 34 42 37 38 37 24 28 37 42
39 30 33 33 25 16 13 13 12 15 18 20 20 18 15 18 19 21 19 16 15 13 21 15 10 10 9 10 16 20 25 24 22 23 27 33 37 43 39 38 39 29 32 34 43
35 31 31 28 26 22 21 20 13 12 18 21 20 20 18 18 19 19 19 16 13 16 13 10 10 9 8 8 8 19 22 21 20 22 24 39 37 45 43 43 33 33 30 29 36
40 34 37 36 28 18 18 21 19 13 17 20 21 20 21 20 20 20 20 18 15 16 12 8 7 8 8 7 8 14 14 11 17 17 16 18 20 25 38 39 35 32 33 23 35
40 39 36 33 30 26 17 15 19 17 16 21 20 21 22 20 22 27 26 24 19 20 14 12 10 9 8 10 10 9 11 11 10 10 12 13 15 16 30 34 31 32 37 40 38
Wind_Speed
16 16 16 15 15 16 16 16 16 16 16 16 17 17 18 21 24 6 10 2 4 12 6 15 13 12 6 12 12 24 10 12 10 4 14 11 15 8 13 10 10 3 23 29 26
16 16 16 16 15 16 17 17 17 17 17 18 17 17 18 19 11 17 8 7 10 11 11 13 9 7 13 11 8 5 2 8 9 5 15 6 12 9 5 13 11 22 26 29 22
16 16 17 17 16 16 18 18 17 18 18 18 18 17 17 17 10 3 9 10 11 13 17 22 8 11 14 4 14 6 5 10 16 12 12 11 8 15 6 12 16 26 24 29 26
16 17 17 18 17 16 18 20 19 18 20 18 18 17 18 6 2 5 8 9 8 9 13 13 11 11 10 10 15 6 10 9 10 2 9 14 13 12 14 8 13 21 29 27 24
16 16 17 18 19 18 17 19 21 19 18 18 16 15 9 9 9 8 10 7 9 9 14 11 6 9 15 12 21 9 10 2 7 4 15 4 10 7 13 9 14 20 21 29 23
17 17 18 18 19 20 19 19 20 22 17 16 13 12 6 12 10 9 12 12 12 14 16 8 11 25 15 9 3 21 4 12 7 5 5 4 11 12 9 11 15 18 17 19 27
17 17 18 19 20 21 21 21 20 21 19 13 9 6 11 18 1 12 12 14 15 15 16 6 5 11 15 14 21 9 12 7 6 3 4 6 7 7 16 12 14 16 16 15 21
17 18 19 19 21 22 23 23 22 20 18 11 6 8 9 11 9 12 13 14 15 14 17 10 3 9 23 21 15 9 13 11 22 5 6 4 8 10 16 16 13 15 13 15 13
18 18 19 20 21 23 26 27 23 15 15 9 5 9 16 6 14 13 16 17 16 14 11 11 8 14 9 9 7 11 5 11 16 14 4 5 5 7 16 16 18 18 16 16 16
19 18 18 20 21 23 29 29 12 11 9 10 15 8 21 18 16 21 18 18 17 14 13 11 10 17 20 10 7 11 9 16 12 9 9 9 12 14 18 16 19 19 21 20 21
20 20 20 20 21 21 18 7 5 7 14 15 16 15 5 19 16 21 18 18 16 16 18 17 16 19 13 3 13 8 3 15 7 9 1 9 11 12 7 18 16 20 23 23 22
20 21 21 23 22 20 11 7 11 9 11 27 24 21 20 10 10 16 20 20 20 21 19 20 19 23 7 6 7 9 16 10 4 6 5 12 14 15 14 17 19 21 20 27 23
21 22 22 26 29 11 12 17 11 12 9 18 28 25 19 9 18 21 24 24 21 23 22 23 24 17 13 11 12 21 15 1 10 2 12 14 21 23 17 17 16 15 19 27 30
21 22 23 31 10 11 13 11 10 11 8 17 27 23 23 17 22 21 26 25 20 23 23 22 24 21 15 15 21 17 11 8 8 11 15 3 16 12 13 7 12 12 19 18 33
21 21 22 11 16 6 8 6 5 6 7 8 24 11 20 23 7 27 27 27 27 24 20 22 23 22 14 15 9 5 6 8 15 16 14 19 18 5 9 12 20 20 6 7 32
22 20 21 7 9 17 14 9 7 8 14 9 10 13 24 29 25 16 25 24 25 27 24 23 21 20 24 13 18 15 9 10 16 16 19 21 20 17 2 11 11 32 8 3 5
24 22 12 13 8 15 10 9 8 14 17 14 18 17 23 24 26 23 25 28 30 27 29 26 24 22 21 12 18 20 16 19 18 15 8 18 19 10 7 22 21 4 8 6 4
28 26 11 16 13 13 11 12 13 15 29 11 16 18 23 25 25 26 24 29 29 31 22 25 25 27 12 21 21 21 21 17 21 7 8 9 10 8 37 2 4 11 12 9 4
37 8 7 10 20 14 13 20 13 21 17 22 12 18 19 23 18 29 24 26 28 32 31 24 25 21 26 19 20 24 28 13 29 9 13 13 25 36 9 27 12 5 10 17 10
13 14 18 17 18 14 16 28 21 26 13 18 14 14 19 24 28 25 26 23 27 31 34 29 26 25 27 22 19 27 6 5 16 19 19 19 6 3 10 20 2 42 7 12 15
6 7 14 13 16 14 25 27 26 29 15 9 13 16 17 19 27 24 29 22 26 26 27 29 30 21 21 17 22 19 10 6 6 15 6 10 4 11 9 5 18 31 4 5 16
9 12 14 15 14 16 25 28 24 28 12 13 18 21 19 16 19 25 23 23 21 26 31 30 25 23 20 20 16 23 23 27 24 10 9 18 9 32 15 9 18 37 14 11 8
7 10 10 15 13 21 21 26 29 29 26 9 19 17 19 13 18 18 22 23 17 19 24 26 26 27 19 20 20 17 20 25 22 24 22 13 10 8 15 19 20 9 7 8 6
7 7 8 15 20 23 21 23 25 28 30 18 18 20 16 15 20 17 14 19 17 14 5 24 26 22 23 21 20 23 21 21 24 24 21 14 9 23 23 16 25 15 11 8 8
7 11 8 13 21 24 23 24 23 25 28 18 18 17 10 17 19 19 13 17 12 8 6 19 24 26 27 27 23 18 19 19 19 25 26 27 45 39 20 16 22 35 14 7 9
7 11 17 18 16 23 24 24 21 21 24 21 24 14 16 20 20 17 13 14 17 13 15 21 20 20 25 22 23 17 13 10 17 16 17 20 20 4 27 17 10 15 29 6 15
13 15 12 12 16 17 19 23 21 18 21 22 23 19 21 23 16 13 11 19 19 18 21 20 21 22 21 20 18 22 16 17 19 13 13 14 15 10 11 18 23 27 5 17 14
Wind_Direction
2 0 358 1 351 347 343 343 340 339 335 330 330 328 326 327 315 249 261 158 164 171 212 252 231 245 224 260 209 167 197 108 123 227 117 121 96 74 116 109 62 108 142 148 165
359 359 355 356 353 347 340 340 339 335 332 328 328 326 326 328 303 268 224 138 149 183 225 230 224 253 247 215 17 309 248 121 157 152 121 128 89 142 151 133 113 97 126 143 143
357 357 353 350 353 346 338 336 337 332 328 324 323 325 324 321 286 234 148 164 180 206 251 291 298 291 272 311 179 231 232 82 93 145 110 109 95 110 48 99 145 130 140 145 144
358 352 351 347 346 346 338 333 331 330 323 320 319 323 317 287 304 101 156 180 190 231 257 264 262 6 346 277 158 276 48 86 98 59 106 116 77 67 66 57 113 129 144 146 158
356 351 348 345 340 340 337 331 325 324 319 314 314 323 315 240 258 138 147 170 184 215 247 224 336 78 223 288 43 316 103 114 98 129 100 136 100 58 88 95 118 132 154 155 160
354 350 347 342 338 335 332 326 321 317 314 309 308 312 257 248 94 145 167 175 199 220 233 231 229 182 234 81 315 263 359 123 155 142 130 119 128 118 127 118 132 142 165 175 162
352 349 345 339 335 330 325 320 317 310 306 304 295 283 264 239 109 160 184 202 221 227 247 222 308 341 344 318 197 245 344 170 109 113 93 305 359 41 136 140 149 161 169 182 178
350 347 342 336 333 327 321 315 310 302 297 299 272 249 257 246 229 224 199 211 228 239 268 285 231 268 115 262 265 226 22 52 307 290 114 152 245 227 146 152 164 167 178 175 200
344 343 337 333 332 325 318 309 301 286 279 282 239 217 257 139 217 223 206 216 219 233 250 295 273 270 271 268 343 38 319 265 262 255 195 212 200 196 164 175 176 181 180 182 184
337 337 334 331 327 325 320 299 279 304 235 240 264 255 254 225 207 209 209 218 213 222 231 239 249 251 244 209 210 187 205 247 182 252 191 230 238 201 186 192 186 187 182 186 180
334 333 330 326 323 325 334 286 216 209 227 218 193 211 93 223 183 202 195 213 210 224 225 216 234 251 229 128 218 239 234 265 213 178 226 260 264 259 213 195 203 195 187 187 190
331 330 328 322 317 315 295 251 24 336 295 227 250 233 268 150 185 196 193 205 205 218 223 237 220 251 87 208 293 259 244 258 307 101 275 267 269 274 238 217 222 201 200 185 186
329 328 327 320 314 288 228 257 332 311 270 264 216 227 218 189 214 207 198 207 209 221 225 232 235 221 190 207 217 246 239 146 300 249 256 255 272 273 228 228 233 237 207 193 180
326 325 327 327 305 330 253 238 240 266 276 251 203 218 222 200 234 232 197 210 223 223 230 241 246 255 205 241 224 257 99 273 273 285 274 209 273 277 182 215 204 219 217 215 177
322 321 320 328 307 272 29 298 283 244 274 171 171 163 199 196 217 207 192 213 221 220 229 234 238 250 236 230 257 226 209 229 258 270 284 273 241 221 150 213 13 292 56 240 174
315 315 324 291 219 254 310 295 235 224 243 143 139 200 196 205 231 205 204 205 230 238 234 249 247 232 254 214 235 196 182 225 255 257 255 349 277 68 92 124 134 266 118 324 242
308 304 292 302 215 330 230 239 208 228 237 163 171 195 209 199 215 226 193 198 216 221 234 235 241 246 229 259 236 225 238 256 246 227 255 29 347 295 269 174 203 242 134 139 285
309 302 262 229 249 251 265 212 230 215 242 150 185 192 206 206 209 214 197 214 210 229 225 228 225 233 186 231 244 241 247 249 264 247 321 62 223 261 295 64 150 200 162 131 196
312 258 237 233 223 243 222 212 213 237 202 238 182 187 205 218 206 223 205 216 218 219 231 230 231 210 230 209 241 243 239 267 274 246 258 172 235 184 304 1 344 128 163 160 143
314 287 242 191 175 212 218 229 231 253 314 300 214 220 218 203 209 204 206 225 224 214 230 244 260 221 207 207 218 242 28 335 310 288 253 259 83 66 6 73 39 285 12 152 142
255 232 114 142 176 209 218 226 241 268 295 269 279 270 227 232 205 215 217 220 211 222 213 241 255 269 221 193 216 218 125 114 251 266 279 344 47 358 82 98 283 287 127 45 147
279 253 149 161 188 217 227 234 244 258 217 252 269 281 277 254 225 215 231 216 208 209 214 226 247 254 216 204 218 248 236 197 211 182 192 204 215 201 142 146 250 262 42 48 10
258 212 159 195 218 224 228 238 243 254 256 220 242 251 278 274 265 248 211 238 215 205 219 208 234 253 249 230 196 222 246 262 232 250 244 231 142 14 174 256 236 98 106 121 70
275 198 158 211 241 259 239 224 237 241 257 243 241 248 244 264 262 265 223 233 209 187 288 223 222 231 243 239 204 211 223 238 253 259 275 318 291 16 332 311 334 348 107 92 139
248 249 328 190 224 236 253 257 225 233 233 238 248 250 240 247 237 247 220 225 153 125 251 229 219 231 233 264 271 221 218 223 250 273 282 191 249 188 164 270 25 321 306 110 135
287 314 346 300 261 207 231 251 259 229 235 212 244 235 244 258 251 245 230 236 175 172 223 215 233 236 246 249 259 261 261 259 220 243 265 279 295 279 150 130 111 273 286 21 59
355 333 293 284 277 271 219 232 245 262 227 234 215 235 240 239 282 343 339 291 175 201 200 219 216 235 239 234 255 257 250 251 262 255 263 256 267 292 169 160 141 240 13 38 25